www.pogodaiklimat.ru

Погода и климат >> Архив погоды >> Россия >> Якутия >> Мыс Кигилях


ПОГОДА на Мысе Кигилях

  • Прогноз погоды на Мысе Кигилях
  • Монитор погоды на Мысе Кигилях

АРХИВ ПОГОДЫ на Мысе Кигилях

Время (UTC), дата Ветер
(напр.,м/с)
 
Видим.   Явления Облачность Т
(С)
Тd
(С)
f
(%)
Тe
(С)
Тes
(С)
Комфортность P
(гПа)
Po
(гПа)
Тmin
(С)
Tmax
(С)
R
(мм)
R24
(мм)
S
(см)
18 14.07 З 5 20 км 10/10 300 м
[Sc]
+1.5 +0.7 94 -4 -4 1009.5 1006.4
21 14.07 З 6 20 км 10/10 300 м
[Sc]
+1.6 +0.8 94 -5 -5 1009.2 1006.1
00 15.07 З 6 4000 м дымка 10/10 300 м
[Sc]
+1.8 +1.0 94 -5 -5 1008.1 1005.0 +0.9
03 15.07 З 6 20 км {дождь} 10/10 300 м
[Sc]
+2.3 +0.7 89 -4 -4 1006.9 1003.8
06 15.07 З 10-12
{13}
20 км {дождь} 10/10 300 м
[Sc]
+2.3 +1.3 93 -5 -5 1005.5 1002.4
09 15.07 З 9-11
{14}
4000 м дымка {снег} 10/10 300 м
[Sc]
+2.2 +1.7 96 -5 -5 1005.0 1001.9
12 15.07 З 9-10
{13}
4000 м дымка {снег} 10/10 300 м
[St]
+0.9 +0.4 96 -7 -7 1004.1 1001.0 +2.7 0.7
15 15.07 З 10-11
{14}
2000 м дымка 10/10 300 м
[St]
+0.8 +0.3 96 -7 -7 1002.6 999.5
18 15.07 З 8-10
{13}
4000 м слаб. морось 10/10 300 м
[St]
+0.8 +0.3 96 -7 -7 1002.5 999.4
21 15.07 З 9-11
{12}
4000 м дымка 10/10 300 м
[St]
+0.7 +0.2 96 -7 -7 1004.7 1001.6
00 16.07 СЗ 8-10
{13}
4000 м дымка 10/10 300 м
[St]
+0.9 +0.1 94 -7 -7 1005.6 1002.5 +0.1 0.0
03 16.07 СЗ 9-11
{14}
20 км 10/10 300 м
[Sc]
+1.4 +0.3 92 -6 -6 1006.9 1003.8
06 16.07 СЗ 8-10
{12}
4000 м дымка 10/10 300 м
[St]
+1.8 +1.3 96 -5 -5 1008.2 1005.1
09 16.07 З 7
{10}
500 м туман ?/? +0.5 +0.2 98 -7 -7 1008.8 1005.7
12 16.07 СЗ 6 500 м туман ?/? -0.2 -0.2 100 -7 -7 1009.1 1006.0 +2.1
15 16.07 СЗ 5 500 м туман ?/? -0.3 -0.6 98 -7 -7 1009.2 1006.1
18 16.07 СЗ 4 20 км {туман} 10/10 300 м
[Sc]
+0.6 -0.2 94 -5 -5 1009.1 1006.0
21 16.07 СЗ 4 2000 м дымка 10/10 300 м
[St]
+0.9 +0.1 94 -5 -5 1009.2 1006.1
00 17.07 СЗ 5 2000 м дымка {туман} 10/10 300 м
[Sc]
+1.4 +0.9 96 -5 -5 1009.7 1006.6 -0.4
03 17.07 С 4 4000 м дымка 10/10 300 м
[Sc]
+2.1 +1.3 94 -3 -3 1009.9 1006.8
06 17.07 С 3 20 км 10/10 300 м
[Sc]
+3.0 +1.7 91 -1 -1 1010.7 1007.6
09 17.07 С 3 50 км 10/0
[Ac trans Ci fib]
+3.9 +0.8 80 0 +1 1011.7 1008.6
12 17.07 С 3 4000 м дымка 10/10 300 м
[Sc]
+2.7 +1.9 94 -2 -2 1013.4 1010.3 +4.7
15 17.07 С 4 20 км 10/10 300 м
[Sc]
+1.9 +0.6 91 -3 -3 1014.4 1011.3
18 17.07 З 4 20 км 10/10 600 м
[Sc]
+1.6 +0.5 92 -4 -4 1014.2 1011.1
21 17.07 З 4 4000 м слаб. морось 10/10 300 м
[St]
+2.0 +1.5 96 -3 -3 1014.4 1011.3
00 18.07 С 4 500 м туман ?/? +3.1 +2.9 99 -2 -2 1015.2 1012.1 +1.1 0.0
03 18.07 С 7
{12}
20 км {туман} 10/10 300 м
[Sc]
+4.1 +2.4 89 -2 -2 1016.9 1013.8
06 18.07 С 6
{10}
20 км {туман} 10/10 300 м
[St]
+3.3 +1.5 88 -2 -2 1018.6 1015.5
09 18.07 С 6 50 км 9/9 300 м
[Sc]
+3.3 +1.2 86 -2 -2 1020.0 1016.9
12 18.07 СЗ 7
{11}
4000 м дымка 9/9 300 м
[Sc]
+1.8 +1.0 94 -5 -5 1020.6 1017.5 +4.5
15 18.07 СЗ 5 2000 м дымка 9/9 300 м
[Sc]
+0.3 -0.3 96 -6 -6 1020.1 1017.0
18 18.07 СЗ 6 500 м туман ?/? +0.7 +0.4 98 -6 -6 1019.3 1016.2
21 18.07 СЗ 5 500 м туман ?/? +1.6 +1.6 100 -4 -4 1018.9 1015.8
00 19.07 С 3 2000 м дымка {туман} 10/10 300 м
[St]
+3.1 +2.6 97 -1 -1 1019.6 1016.5 +0.2
03 19.07 С 4 20 км 10/10 600 м
[Sc]
+3.4 +0.2 80 -1 -1 1020.7 1017.6
06 19.07 СЗ 5 50 км 10/10 600 м
[Sc]
+3.4 +1.6 88 -2 -2 1020.8 1017.7
09 19.07 З 5 50 км 10/10 600 м
[Sc]
+4.5 +0.9 77 -0 -0 1021.2 1018.1
12 19.07 СЗ 5 50 км 10/10 600 м
[Sc]
+3.8 +0.4 78 -1 -1 1021.5 1018.4 +5.4
15 19.07 З 3 50 км 10/0
[Ac trans Ci fib]
+2.2 +1.1 92 -2 -2 1021.4 1018.3
18 19.07 З 3 50 км 10/0
[Ac trans Ci fib]
+1.9 +0.6 91 -2 -2 1020.7 1017.6
21 19.07 З 5 50 км 10/0
[Ac trans Ci fib]
+2.6 +0.5 86 -3 -2 1019.2 1016.1
00 20.07 З 5 50 км 9/0
[Ac trans Ci sp]
+3.3 +0.1 80 -2 0 1017.4 1014.3 +1.1
03 20.07 З 9-11
{13}
2000 м дымка 10/10 300 м
[St]
+2.9 +2.1 94 -4 -4 1014.6 1011.5
06 20.07 ЮЗ 9-12
{14}
50 км 9/9 300 м
[Sc]
+4.9 +2.7 86 -1 -1 1011.0 1007.9
09 20.07 ЮЗ 8-10
{13}
20 км 4/4 300 м
[Sc]
+4.9 +3.0 87 -1 -1 1007.4 1004.3
12 20.07 СЗ 8-10
{12}
500 м туман ?/? +2.2 +1.9 98 -5 -5 1007.4 1004.3 +5.2
15 20.07 СЗ 7
{10}
20 км {туман} 10/10 300 м
[Sc]
+1.8 -0.1 87 -5 -5 1007.6 1004.5
18 20.07 СЗ 8-11
{12}
20 км в посл. час морось {туман} 9/9 300 м
[Sc]
+1.0 -0.1 92 -6 -6 1006.6 1003.5
21 20.07 З 8-10
{13}
20 км 10/10 300 м
[Sc]
+1.4 +0.6 94 -6 -6 1005.9 1002.8
00 21.07 З 8-10
{11}
20 км 10/10 300 м
[Sc]
+2.0 +0.7 91 -5 -5 1006.3 1003.2 +0.7
03 21.07 З 9-11
{14}
20 км 10/10 300 м
[Sc]
+2.0 +0.9 92 -5 -5 1007.0 1003.9
06 21.07 СЗ 8-10
{13}
20 км 10/10 300 м
[Sc]
+2.4 +0.8 89 -4 -4 1008.6 1005.5
09 21.07 СЗ 7
{13}
20 км 10/10 300 м
[Sc]
+2.4 +1.1 91 -4 -4 1011.2 1008.1
12 21.07 С 7
{11}
20 км 10/10 600 м
[Sc]
+2.7 +0.6 86 -4 -4 1013.3 1010.2 +2.8
15 21.07 С 8-10
{11}
20 км 10/10 600 м
[Sc]
+1.6 +0.8 94 -6 -6 1015.5 1012.4

 

Местоположение метеостанции Мыс Кигилях (Якутия, Россия): широта 73.33 долгота 139.80 высота над уровнем моря 25 м.

В архиве по умолчанию представлена погода на Мысе Кигилях за последнюю неделю. Архивные данные за месяц целиком и за предыдущие месяцы, начиная с января 2011 года, Вы можете получить, выбрав интересующий диапазон дат из раскрывающегося списка и нажав кнопку "Ввод!".


*Определитесь, кто Вы:
робот инопланетянин человек

Внимание! Время в таблицах - всемирное. Для получения местного времени необходимо прибавить поправку, которая равна 10 ч.

Смотрите также архив погоды в соседних городах и на ближайших метеорологических станциях:

Погода на Проливе Санникова (Якутия, Россия) (152 км)
Погода на Острове Котельном (Якутия, Россия) (303 км)
Погода в Юбилейной (Якутия, Россия) (310 км)
Погода на Мысе Быков (Якутия, Россия) (384 км)
Погода в Усть-Куйге (Якутия, Россия) (398 км)
Погода в Чокурдахе (Якутия, Россия) (408 км)
Погода в Тикси (Якутия, Россия) (413 км)
Погода в Депутатском (Якутия, Россия) (439 км)
Погода на Столб Острове (Якутия, Россия) (453 км)
Погода на Острове Жохова (Якутия, Россия) (492 км)

Пояснения к столбцам:

Ветер - указаны скорость ветра в м/с - средняя за 10 мин, порывы в срок и между сроками (в фигурных скобках) и направление, откуда дует ветер: С - северный, СВ - северо-восточный, В - восточный, ЮВ - юго-восточный, Ю - южный, ЮЗ - юго-западный, З - западный, СЗ - северо-западный.
Видимость - горизонтальная дальность видимости в метрах или километрах. При видимости от 1 до 10 км при отсутствии осадков обычно наблюдается дымка, при ухудшении видимости до 1 км и менее - туман. В сухую погоду видимость может ухудшаться дымом, пылью или мглою.
Явления - указаны атмосферные явления, наблюдавшиеся в срок или в последний час перед сроком; фигурными скобками обозначены явления, наблюдавшиеся между сроками (за 1-3 часа до срока); квадратными скобками обозначены град или гололедные отложения с указанием их диаметра в мм.
Облачность - указаны через наклонную черту общая и нижняя облачность в баллах и высота нижней границы облаков в метрах; квадратными скобками обозначены формы облаков: Ci - перистые, Cs - перисто-слоистые, Cc - перисто-кучевые, Ac - высококучевые, As - высокослоистые, Sc - слоисто-кучевые, Ns - слоисто-дождевые, Cu - кучевые, Cb - кучево-дождевые. Подробнее классификацию облаков см. в Атласе облаков (PDF).
T - Температура воздуха - температура, измеренная на высоте 2 м над землей.
Td - Температура точки росы - температура, при понижении до которой содержащийся в воздухе водяной пар достигнет насыщения.
f - Относительная влажность воздуха - влажноcть воздуха, измеренная на высоте 2 м над землей.
Te - Эффективная температура - температура, которую ощущает одетый по сезону человек в тени. Характеристика душности погоды. При расчете учитывается влияние влажности воздуха и скорости ветра на теплоощущения человека.
Tes - Эффективная температура на солнце - температура, которую ощущает человек, с поправкой на солнечный нагрев. Характеристика знойности погоды. Зависит от высоты солнца над горизонтом, облачности и скорости ветра. Ночью, в пасмурную погоду, а также при ветре 12 м/с и более поправка равна нулю.
P - Атмосферное давление - приведенное к уровню моря атмосферное давление.
Po - Атмосферное давление - измеренное на уровне метеостанции атмосферное давление.
Tmin - Минимальная температура - минимум температуры воздуха на высоте 2 м над землей.
Tmax - Максимальная температура - максимум температуры воздуха на высоте 2 м над землей.
R - Количество осадков - Количество выпавших осадков за период времени, мм. При наведении курсора мыши на число - период времени, за который выпало указанное количество осадков.
R24 - Количество осадков - Количество выпавших осадков за 24 часа, мм.
S - Снежный покров - Высота снежного покрова, см. При наведении курсора мыши на число - состояние снежного покрова и степень покрытия местности в баллах.